Torna al catalogo

STARLINK-38217

AttivoComunicazioniSSO
NORAD 100170·PAYLOAD·🇺🇸 United States

Lanciato Jul 25, 2026 da Vandenberg Space Force Base

Loading…

Prossimi Passaggi (prossime 24 ore)

TLE

AggiornatoSource: Space-Track

Epoca: Sep 14, 2026, 15:26 UTC

1 A0170U 26171Y   26257.64337599  .00012580  00000-0  39115-3 0  9991
2 A0170  97.2837 290.2487 0002115  78.3489 281.7991 15.33460026  8001

Traccia STARLINK-38217 in tempo reale con AllMySat

Download on the App Store